| time (UTC) | temp C | wind direction | speed KPH | gust KPH | rain 1hr cm | rain 24hr cm | rain mn cm | humidity % | barometer mb |
| 20260905104017 | 8 | 342 | 6.4 | 0.0 | 0.00 | 0.00 | 0.00 | 74 | 1007.5 |
| 20260905103535 | 8 | 342 | 4.8 | 0.0 | 0.00 | 0.00 | 0.00 | 71 | 1007.4 |
| 20260905103049 | 9 | 342 | 3.2 | 0.0 | 0.00 | 0.00 | 0.00 | 71 | 1007.5 |
| 20260905102557 | 10 | 342 | 1.6 | 0.0 | 0.00 | 0.00 | 0.00 | 70 | 1007.5 |
| 20260905102012 | 10 | 342 | 1.6 | 0.0 | 0.00 | 0.00 | 0.00 | 71 | 1007.4 |
| 20260905101524 | 10 | 342 | 1.6 | 0.0 | 0.00 | 0.00 | 0.00 | 70 | 1007.4 |
| 20260905101039 | 10 | 342 | 3.2 | 0.0 | 0.00 | 0.00 | 0.00 | 70 | 1007.4 |
| 20260905100552 | 10 | 342 | 3.2 | 0.0 | 0.00 | 0.00 | 0.00 | 69 | 1007.3 |
| 20260905100108 | 11 | 342 | 3.2 | 0.0 | 0.00 | 0.00 | 0.00 | 69 | 1007.3 |
| 20260905095516 | 11 | 342 | 4.8 | 0.0 | 0.00 | 0.00 | 0.00 | 69 | 1007.1 |
| 20260905095032 | 11 | 342 | 4.8 | 0.0 | 0.00 | 0.00 | 0.00 | 68 | 1007.1 |
| 20260905094543 | 11 | 342 | 3.2 | 0.0 | 0.00 | 0.00 | 0.00 | 68 | 1007.0 |
| 20260905094059 | 11 | 342 | 3.2 | 0.0 | 0.00 | 0.00 | 0.00 | 68 | 1007.0 |
| 20260905093507 | 11 | 342 | 6.4 | 0.0 | 0.00 | 0.00 | 0.00 | 67 | 1006.9 |
| 20260905093017 | 11 | 342 | 8.0 | 0.0 | 0.00 | 0.00 | 0.00 | 67 | 1006.9 |
| 20260905092539 | 11 | 342 | 9.7 | 0.0 | 0.00 | 0.00 | 0.00 | 67 | 1006.7 |
| 20260905092053 | 11 | 340 | 11.3 | 0.0 | 0.00 | 0.00 | 0.00 | 66 | 1006.7 |
| 20260905091513 | 12 | 329 | 12.9 | 0.0 | 0.00 | 0.00 | 0.00 | 66 | 1006.7 |
| 20260905091027 | 12 | 327 | 9.7 | 0.0 | 0.00 | 0.00 | 0.00 | 65 | 1006.7 |
| 20260905090536 | 12 | 329 | 8.0 | 0.0 | 0.00 | 0.00 | 0.00 | 65 | 1006.5 |
| 20260905090048 | 12 | 319 | 9.7 | 0.0 | 0.00 | 0.00 | 0.00 | 64 | 1006.5 |
| 20260905085504 | 12 | 320 | 8.0 | 0.0 | 0.00 | 0.00 | 0.00 | 63 | 1006.4 |
| 20260905085105 | 12 | 323 | 9.7 | 0.0 | 0.00 | 0.00 | 0.00 | 63 | 1006.3 |
| 20260905084601 | 12 | 321 | 8.0 | 0.0 | 0.00 | 0.00 | 0.00 | 63 | 1006.2 |
| 20260905084002 | 12 | 322 | 4.8 | 0.0 | 0.00 | 0.00 | 0.00 | 63 | 1006.2 |
| 20260905083602 | 11 | 13 | 3.2 | 0.0 | 0.00 | 0.00 | 0.00 | 63 | 1006.1 |
| 20260905083110 | 11 | 53 | 4.8 | 0.0 | 0.00 | 0.00 | 0.00 | 63 | 1006.2 |
| 20260905082603 | 12 | 27 | 8.0 | 0.0 | 0.00 | 0.00 | 0.00 | 63 | 1006.0 |
| 20260905082003 | 12 | 28 | 11.3 | 0.0 | 0.00 | 0.00 | 0.00 | 62 | 1005.7 |
| 20260905081605 | 12 | 36 | 9.7 | 0.0 | 0.00 | 0.00 | 0.00 | 62 | 1005.9 |
| 20260905081001 | 12 | 60 | 8.0 | 0.0 | 0.00 | 0.00 | 0.00 | 60 | 1006.3 |
| 20260905080557 | 12 | 44 | 9.7 | 0.0 | 0.00 | 0.00 | 0.00 | 60 | 1006.1 |
| 20260905080053 | 11 | 82 | 9.7 | 0.0 | 0.00 | 0.00 | 0.00 | 59 | 1006.1 |
| 20260905075554 | 11 | 47 | 8.0 | 0.0 | 0.00 | 0.00 | 0.00 | 57 | 1005.6 |
| 20260905075054 | 11 | 63 | 4.8 | 0.0 | 0.00 | 0.00 | 0.00 | 58 | 1005.7 |
| 20260905074549 | 11 | 42 | 3.2 | 0.0 | 0.00 | 0.00 | 0.00 | 57 | 1005.9 |
| 20260905074050 | 11 | 42 | 3.2 | 0.0 | 0.00 | 0.00 | 0.00 | 57 | 1005.5 |
| 20260905073550 | 11 | 42 | 3.2 | 0.0 | 0.00 | 0.00 | 0.00 | 56 | 1005.4 |
| 20260905073043 | 11 | 42 | 4.8 | 0.0 | 0.00 | 0.00 | 0.00 | 56 | 1005.2 |
| 20260905072543 | 11 | 34 | 6.4 | 0.0 | 0.00 | 0.00 | 0.00 | 56 | 1004.9 |
| 20260905072051 | 11 | 55 | 6.4 | 0.0 | 0.00 | 0.00 | 0.00 | 57 | 1005.0 |
| 20260905071551 | 11 | 84 | 8.0 | 0.0 | 0.00 | 0.00 | 0.00 | 55 | 1005.0 |
| 20260905071052 | 11 | 355 | 6.4 | 0.0 | 0.00 | 0.00 | 0.00 | 54 | 1004.9 |
| 20260905070558 | 11 | 355 | 9.7 | 0.0 | 0.00 | 0.00 | 0.00 | 54 | 1004.7 |
| 20260905070059 | 11 | 355 | 11.3 | 0.0 | 0.00 | 0.00 | 0.00 | 53 | 1004.7 |
| 20260905065603 | 11 | 323 | 9.7 | 0.0 | 0.00 | 0.00 | 0.00 | 55 | 1004.8 |
| 20260905065002 | 11 | 308 | 8.0 | 0.0 | 0.00 | 0.00 | 0.00 | 56 | 1004.4 |
| 20260905064607 | 11 | 259 | 8.0 | 0.0 | 0.00 | 0.00 | 0.00 | 56 | 1004.1 |
| 20260905064104 | 11 | 286 | 4.8 | 0.0 | 0.00 | 0.00 | 0.00 | 56 | 1004.1 |
| 20260905063553 | 11 | 286 | 4.8 | 0.0 | 0.00 | 0.00 | 0.00 | 53 | 1003.9 |
| 20260905063056 | 11 | 286 | 4.8 | 0.0 | 0.00 | 0.00 | 0.00 | 53 | 1003.7 |
| 20260905062549 | 11 | 286 | 6.4 | 0.0 | 0.00 | 0.00 | 0.00 | 54 | 1003.6 |
| 20260905062050 | 12 | 286 | 6.4 | 0.0 | 0.00 | 0.00 | 0.00 | 53 | 1003.7 |
| 20260905061607 | 12 | 339 | 6.4 | 0.0 | 0.00 | 0.00 | 0.00 | 52 | 1003.8 |
| 20260905061004 | 12 | 339 | 4.8 | 0.0 | 0.00 | 0.00 | 0.00 | 52 | 1003.8 |
| 20260905060609 | 12 | 339 | 4.8 | 0.0 | 0.00 | 0.00 | 0.00 | 52 | 1003.8 |
| 20260905060101 | 12 | 227 | 3.2 | 0.0 | 0.00 | 0.00 | 0.00 | 49 | 1003.7 |
| 20260905055557 | 12 | 202 | 4.8 | 0.0 | 0.00 | 0.00 | 0.00 | 49 | 1003.9 |
| 20260905055104 | 13 | 203 | 8.0 | 0.0 | 0.00 | 0.00 | 0.00 | 48 | 1003.7 |
| 20260905054557 | 13 | 196 | 9.7 | 0.0 | 0.00 | 0.00 | 0.00 | 46 | 1003.7 |
| 20260905054105 | 13 | 155 | 9.7 | 0.0 | 0.00 | 0.00 | 0.00 | 46 | 1003.6 |
| 20260905053502 | 13 | 133 | 9.7 | 0.0 | 0.00 | 0.00 | 0.00 | 46 | 1003.5 |
| 20260905053002 | 13 | 152 | 9.7 | 0.0 | 0.00 | 0.00 | 0.00 | 46 | 1003.7 |
| 20260905052602 | 13 | 143 | 11.3 | 0.0 | 0.00 | 0.00 | 0.00 | 45 | 1003.8 |
| 20260905052011 | 13 | 157 | 11.3 | 0.0 | 0.00 | 0.00 | 0.00 | 45 | 1003.7 |
| 20260905051510 | 13 | 145 | 11.3 | 0.0 | 0.00 | 0.00 | 0.00 | 45 | 1003.8 |
| 20260905051011 | 13 | 165 | 11.3 | 0.0 | 0.00 | 0.00 | 0.00 | 45 | 1003.8 |
| 20260905050525 | 14 | 148 | 12.9 | 0.0 | 0.00 | 0.00 | 0.00 | 44 | 1003.8 |
| 20260905050032 | 15 | 168 | 12.9 | 0.0 | 0.00 | 0.00 | 0.00 | 43 | 1004.0 |
| 20260905045530 | 15 | 169 | 12.9 | 0.0 | 0.00 | 0.00 | 0.00 | 42 | 1004.1 |
| 20260905045037 | 15 | 191 | 14.5 | 0.0 | 0.00 | 0.00 | 0.00 | 42 | 1004.2 |
| 20260905044531 | 15 | 175 | 14.5 | 0.0 | 0.00 | 0.00 | 0.00 | 42 | 1004.3 |
| 20260905044037 | 15 | 181 | 14.5 | 0.0 | 0.00 | 0.00 | 0.00 | 42 | 1004.6 |
| 20260905043532 | 15 | 159 | 12.9 | 0.0 | 0.00 | 0.00 | 0.00 | 42 | 1004.4 |
| 20260905043049 | 15 | 163 | 14.5 | 0.0 | 0.00 | 0.00 | 0.00 | 42 | 1004.5 |
| 20260905042530 | 15 | 159 | 16.1 | 0.0 | 0.00 | 0.00 | 0.00 | 42 | 1004.6 |
| 20260905042039 | 15 | 188 | 14.5 | 0.0 | 0.00 | 0.00 | 0.00 | 42 | 1004.8 |
| 20260905041538 | 15 | 193 | 14.5 | 0.0 | 0.00 | 0.00 | 0.00 | 42 | 1004.8 |
| 20260905041036 | 15 | 182 | 14.5 | 0.0 | 0.00 | 0.00 | 0.00 | 42 | 1004.8 |
| 20260905040542 | 15 | 170 | 14.5 | 0.0 | 0.00 | 0.00 | 0.00 | 42 | 1004.8 |
| 20260905040055 | 15 | 180 | 14.5 | 0.0 | 0.00 | 0.00 | 0.00 | 42 | 1004.9 |
| 20260905035549 | 15 | 190 | 11.3 | 0.0 | 0.00 | 0.00 | 0.00 | 42 | 1005.0 |
| 20260905035047 | 15 | 198 | 11.3 | 0.0 | 0.00 | 0.00 | 0.00 | 42 | 1005.0 |
| 20260905034604 | 15 | 199 | 12.9 | 0.0 | 0.00 | 0.00 | 0.00 | 41 | 1005.0 |
| 20260905034006 | 15 | 175 | 12.9 | 0.0 | 0.00 | 0.00 | 0.00 | 41 | 1005.2 |
| 20260905033514 | 15 | 186 | 12.9 | 0.0 | 0.00 | 0.00 | 0.00 | 41 | 1005.2 |
| 20260905033030 | 15 | 192 | 12.9 | 0.0 | 0.00 | 0.00 | 0.00 | 42 | 1005.1 |
| 20260905032532 | 14 | 159 | 11.3 | 0.0 | 0.00 | 0.00 | 0.00 | 43 | 1005.2 |
| 20260905032031 | 14 | 176 | 9.7 | 0.0 | 0.00 | 0.00 | 0.00 | 43 | 1005.2 |
| 20260905031535 | 13 | 177 | 8.0 | 0.0 | 0.00 | 0.00 | 0.00 | 43 | 1005.2 |
| 20260905031039 | 13 | 183 | 8.0 | 0.0 | 0.00 | 0.00 | 0.00 | 43 | 1005.0 |
| 20260905030554 | 13 | 188 | 8.0 | 0.0 | 0.00 | 0.00 | 0.00 | 43 | 1005.1 |
| 20260905030006 | 13 | 194 | 8.0 | 0.0 | 0.00 | 0.00 | 0.00 | 43 | 1005.2 |
| 20260905025502 | 13 | 192 | 6.4 | 0.0 | 0.00 | 0.00 | 0.00 | 42 | 1005.1 |
| 20260905025002 | 13 | 179 | 6.4 | 0.0 | 0.00 | 0.00 | 0.00 | 42 | 1005.1 |
| 20260905024606 | 14 | 178 | 6.4 | 0.0 | 0.00 | 0.00 | 0.00 | 42 | 1005.0 |
| 20260905024002 | 15 | 190 | 6.4 | 0.0 | 0.00 | 0.00 | 0.00 | 40 | 1004.9 |
| 20260905023605 | 15 | 198 | 8.0 | 0.0 | 0.00 | 0.00 | 0.00 | 40 | 1004.9 |
| 20260905023104 | 15 | 195 | 8.0 | 0.0 | 0.00 | 0.00 | 0.00 | 39 | 1004.8 |
| 20260905022601 | 15 | 188 | 9.7 | 0.0 | 0.00 | 0.00 | 0.00 | 39 | 1004.8 |
| 20260905022011 | 15 | 192 | 8.0 | 0.0 | 0.00 | 0.00 | 0.00 | 39 | 1004.7 |
| 20260905021527 | 15 | 196 | 8.0 | 0.0 | 0.00 | 0.00 | 0.00 | 38 | 1004.7 |
| 20260905021027 | 16 | 176 | 6.4 | 0.0 | 0.00 | 0.00 | 0.00 | 36 | 1004.6 |
| 20260905020537 | 17 | 142 | 4.8 | 0.0 | 0.00 | 0.00 | 0.00 | 35 | 1004.6 |
| 20260905020103 | 17 | 176 | 6.4 | 0.0 | 0.00 | 0.00 | 0.00 | 33 | 1004.5 |
| 20260905015549 | 18 | 176 | 8.0 | 0.0 | 0.00 | 0.00 | 0.00 | 33 | 1004.4 |
| 20260905015050 | 18 | 171 | 8.0 | 0.0 | 0.00 | 0.00 | 0.00 | 32 | 1004.3 |
| 20260905014600 | 19 | 163 | 9.7 | 0.0 | 0.00 | 0.00 | 0.00 | 31 | 1004.4 |
| 20260905014057 | 20 | 168 | 11.3 | 0.0 | 0.00 | 0.00 | 0.00 | 30 | 1004.3 |
| 20260905013558 | 20 | 173 | 12.9 | 0.0 | 0.00 | 0.00 | 0.00 | 29 | 1004.4 |
| 20260905013109 | 20 | 175 | 12.9 | 0.0 | 0.00 | 0.00 | 0.00 | 29 | 1004.2 |
| 20260905012556 | 21 | 169 | 11.3 | 0.0 | 0.00 | 0.00 | 0.00 | 28 | 1004.2 |
| 20260905012102 | 21 | 178 | 12.9 | 0.0 | 0.00 | 0.00 | 0.00 | 28 | 1004.2 |
| 20260905011628 | 21 | 157 | 12.9 | 0.0 | 0.00 | 0.00 | 0.00 | 28 | 1004.1 |
| 20260905011052 | 21 | 192 | 12.9 | 0.0 | 0.00 | 0.00 | 0.00 | 27 | 1004.0 |
| 20260905010506 | 21 | 170 | 16.1 | 0.0 | 0.00 | 0.00 | 0.00 | 27 | 1004.0 |
| 20260905010001 | 22 | 188 | 16.1 | 0.0 | 0.00 | 0.00 | 0.00 | 26 | 1004.0 |
| 20260905005503 | 22 | 192 | 16.1 | 0.0 | 0.00 | 0.00 | 0.00 | 26 | 1004.0 |
| 20260905005105 | 22 | 195 | 16.1 | 0.0 | 0.00 | 0.00 | 0.00 | 26 | 1003.9 |
| 20260905004600 | 22 | 169 | 19.3 | 0.0 | 0.00 | 0.00 | 0.00 | 26 | 1003.9 |
| 20260905004102 | 22 | 161 | 19.3 | 0.0 | 0.00 | 0.00 | 0.00 | 26 | 1003.8 |
| 20260905003501 | 22 | 161 | 17.7 | 0.0 | 0.00 | 0.00 | 0.00 | 26 | 1003.8 |
| 20260905003010 | 22 | 167 | 19.3 | 0.0 | 0.00 | 0.00 | 0.00 | 25 | 1003.7 |
| 20260905002513 | 22 | 171 | 19.3 | 0.0 | 0.00 | 0.00 | 0.00 | 25 | 1003.8 |
| 20260905002022 | 22 | 189 | 19.3 | 0.0 | 0.00 | 0.00 | 0.00 | 25 | 1003.8 |
| 20260905001547 | 22 | 142 | 20.9 | 0.0 | 0.00 | 0.00 | 0.00 | 25 | 1003.7 |
| 20260905001040 | 22 | 195 | 22.5 | 0.0 | 0.00 | 0.00 | 0.00 | 24 | 1003.7 |
| 20260905000544 | 22 | 140 | 20.9 | 0.0 | 0.00 | 0.00 | 0.00 | 24 | 1003.6 |
| 20260905000050 | 22 | 137 | 20.9 | 0.0 | 0.00 | 0.00 | 0.00 | 24 | 1003.6 |
| 20260904235504 | 22 | 115 | 20.9 | 0.0 | 0.00 | 0.00 | 0.00 | 24 | 1003.6 |
| 20260904235059 | 23 | 161 | 20.9 | 0.0 | 0.00 | 0.00 | 0.00 | 24 | 1003.6 |
| 20260904234555 | 23 | 227 | 19.3 | 0.0 | 0.00 | 0.00 | 0.00 | 24 | 1003.6 |
| 20260904234052 | 23 | 182 | 19.3 | 0.0 | 0.00 | 0.00 | 0.00 | 24 | 1003.6 |
| 20260904233557 | 22 | 173 | 20.9 | 0.0 | 0.00 | 0.00 | 0.00 | 24 | 1003.5 |
| 20260904233105 | 22 | 177 | 20.9 | 0.0 | 0.00 | 0.00 | 0.00 | 24 | 1003.6 |
| 20260904232503 | 22 | 173 | 19.3 | 0.0 | 0.00 | 0.00 | 0.00 | 24 | 1003.6 |
| 20260904232012 | 22 | 184 | 20.9 | 0.0 | 0.00 | 0.00 | 0.00 | 24 | 1003.7 |
| 20260904231521 | 23 | 193 | 22.5 | 0.0 | 0.00 | 0.00 | 0.00 | 23 | 1003.6 |
| 20260904231030 | 23 | 229 | 24.1 | 0.0 | 0.00 | 0.00 | 0.00 | 23 | 1003.6 |
| 20260904230534 | 23 | 194 | 25.7 | 0.0 | 0.00 | 0.00 | 0.00 | 24 | 1003.7 |
| 20260904230039 | 23 | 167 | 25.7 | 0.0 | 0.00 | 0.00 | 0.00 | 24 | 1003.6 |
| 20260904225554 | 23 | 182 | 27.4 | 0.0 | 0.00 | 0.00 | 0.00 | 24 | 1003.6 |
| 20260904225003 | 23 | 187 | 27.4 | 0.0 | 0.00 | 0.00 | 0.00 | 23 | 1003.6 |
| 20260904224523 | 23 | 196 | 25.7 | 0.0 | 0.00 | 0.00 | 0.00 | 24 | 1003.7 |
| 20260904224042 | 23 | 209 | 25.7 | 0.0 | 0.00 | 0.00 | 0.00 | 23 | 1003.7 |
| 20260904223551 | 22 | 171 | 27.4 | 0.0 | 0.00 | 0.00 | 0.00 | 24 | 1003.7 |
| 20260904223100 | 22 | 190 | 29.0 | 0.0 | 0.00 | 0.00 | 0.00 | 23 | 1003.8 |
| 20260904222514 | 22 | 168 | 27.4 | 0.0 | 0.00 | 0.00 | 0.00 | 24 | 1003.6 |
| 20260904222032 | 22 | 190 | 30.6 | 0.0 | 0.00 | 0.00 | 0.00 | 24 | 1003.7 |
| 20260904221540 | 22 | 163 | 33.8 | 0.0 | 0.00 | 0.00 | 0.00 | 24 | 1003.7 |
| 20260904221058 | 22 | 165 | 33.8 | 0.0 | 0.00 | 0.00 | 0.00 | 24 | 1003.7 |
| 20260904220515 | 23 | 148 | 29.0 | 0.0 | 0.00 | 0.00 | 0.00 | 24 | 1003.7 |
| 20260904220031 | 22 | 117 | 27.4 | 0.0 | 0.00 | 0.00 | 0.00 | 25 | 1003.6 |
| 20260904215551 | 22 | 211 | 27.4 | 0.0 | 0.00 | 0.00 | 0.00 | 25 | 1003.5 |
| 20260904215105 | 23 | 172 | 29.0 | 0.0 | 0.00 | 0.00 | 0.00 | 24 | 1003.6 |
| 20260904214508 | 22 | 148 | 29.0 | 0.0 | 0.00 | 0.00 | 0.00 | 24 | 1003.6 |
| 20260904214017 | 23 | 188 | 29.0 | 0.0 | 0.00 | 0.00 | 0.00 | 25 | 1003.6 |
| 20260904213539 | 22 | 178 | 33.8 | 0.0 | 0.00 | 0.00 | 0.00 | 25 | 1003.6 |
| 20260904213054 | 22 | 145 | 33.8 | 0.0 | 0.00 | 0.00 | 0.00 | 25 | 1003.6 |
| 20260904212545 | 23 | 154 | 32.2 | 0.0 | 0.00 | 0.00 | 0.00 | 24 | 1003.6 |
| 20260904212038 | 23 | 155 | 30.6 | 0.0 | 0.00 | 0.00 | 0.00 | 25 | 1003.7 |
| 20260904211549 | 22 | 178 | 30.6 | 0.0 | 0.00 | 0.00 | 0.00 | 25 | 1003.6 |
| 20260904211052 | 23 | 178 | 32.2 | 0.0 | 0.00 | 0.00 | 0.00 | 25 | 1003.5 |
| 20260904210603 | 23 | 129 | 32.2 | 0.0 | 0.00 | 0.00 | 0.00 | 25 | 1003.4 |
| 20260904210015 | 22 | 169 | 30.6 | 0.0 | 0.00 | 0.00 | 0.00 | 27 | 1003.4 |
| 20260904205532 | 22 | 169 | 30.6 | 0.0 | 0.00 | 0.00 | 0.00 | 26 | 1003.5 |
| 20260904205033 | 21 | 159 | 29.0 | 0.0 | 0.00 | 0.00 | 0.00 | 28 | 1003.4 |
| 20260904204541 | 22 | 174 | 27.4 | 0.0 | 0.00 | 0.00 | 0.00 | 27 | 1003.5 |
| 20260904204048 | 22 | 173 | 27.4 | 0.0 | 0.00 | 0.00 | 0.00 | 27 | 1003.5 |
| 20260904203549 | 22 | 175 | 27.4 | 0.0 | 0.00 | 0.00 | 0.00 | 28 | 1003.5 |
| 20260904203054 | 22 | 192 | 27.4 | 0.0 | 0.00 | 0.00 | 0.00 | 27 | 1003.5 |
| 20260904202555 | 22 | 181 | 30.6 | 0.0 | 0.00 | 0.00 | 0.00 | 27 | 1003.6 |
| 20260904202053 | 22 | 163 | 32.2 | 0.0 | 0.00 | 0.00 | 0.00 | 27 | 1003.6 |
| 20260904201603 | 22 | 152 | 30.6 | 0.0 | 0.00 | 0.00 | 0.00 | 27 | 1003.5 |
| 20260904201107 | 22 | 180 | 32.2 | 0.0 | 0.00 | 0.00 | 0.00 | 26 | 1003.4 |
| 20260904200514 | 22 | 181 | 30.6 | 0.0 | 0.00 | 0.00 | 0.00 | 27 | 1003.4 |
| 20260904200023 | 22 | 135 | 30.6 | 0.0 | 0.00 | 0.00 | 0.00 | 26 | 1003.6 |
| 20260904195526 | 22 | 162 | 30.6 | 0.0 | 0.00 | 0.00 | 0.00 | 27 | 1003.4 |
| 20260904195035 | 22 | 184 | 32.2 | 0.0 | 0.00 | 0.00 | 0.00 | 27 | 1003.4 |
| 20260904194605 | 22 | 189 | 29.0 | 0.0 | 0.00 | 0.00 | 0.00 | 27 | 1003.5 |
| 20260904194058 | 22 | 169 | 27.4 | 0.0 | 0.00 | 0.00 | 0.00 | 27 | 1003.5 |
| 20260904193600 | 22 | 128 | 27.4 | 0.0 | 0.00 | 0.00 | 0.00 | 28 | 1003.4 |
| 20260904193004 | 21 | 159 | 30.6 | 0.0 | 0.00 | 0.00 | 0.00 | 28 | 1003.7 |
| 20260904192520 | 22 | 142 | 32.2 | 0.0 | 0.00 | 0.00 | 0.00 | 28 | 1003.7 |
| 20260904192030 | 22 | 151 | 35.4 | 0.0 | 0.00 | 0.00 | 0.00 | 27 | 1003.6 |
| 20260904191540 | 22 | 158 | 33.8 | 0.0 | 0.00 | 0.00 | 0.00 | 27 | 1003.6 |
| 20260904191041 | 22 | 181 | 32.2 | 0.0 | 0.00 | 0.00 | 0.00 | 26 | 1003.6 |
| 20260904190544 | 21 | 166 | 33.8 | 0.0 | 0.00 | 0.00 | 0.00 | 26 | 1003.6 |
| 20260904190050 | 22 | 168 | 33.8 | 0.0 | 0.00 | 0.00 | 0.00 | 26 | 1003.5 |
| 20260904185553 | 22 | 177 | 33.8 | 0.0 | 0.00 | 0.00 | 0.00 | 26 | 1003.5 |
| 20260904185054 | 22 | 171 | 33.8 | 0.0 | 0.00 | 0.00 | 0.00 | 26 | 1003.4 |
| 20260904184602 | 21 | 150 | 32.2 | 0.0 | 0.00 | 0.00 | 0.00 | 25 | 1003.3 |
| 20260904184018 | 21 | 180 | 33.8 | 0.0 | 0.00 | 0.00 | 0.00 | 26 | 1003.3 |
| 20260904183527 | 21 | 175 | 33.8 | 0.0 | 0.00 | 0.00 | 0.00 | 25 | 1003.4 |
| 20260904183028 | 21 | 213 | 32.2 | 0.0 | 0.00 | 0.00 | 0.00 | 25 | 1003.3 |
| 20260904182538 | 21 | 171 | 33.8 | 0.0 | 0.00 | 0.00 | 0.00 | 25 | 1003.3 |
| 20260904182050 | 21 | 194 | 33.8 | 0.0 | 0.00 | 0.00 | 0.00 | 25 | 1003.3 |
| 20260904181605 | 21 | 143 | 33.8 | 0.0 | 0.00 | 0.00 | 0.00 | 25 | 1003.3 |
| 20260904181103 | 21 | 148 | 35.4 | 0.0 | 0.00 | 0.00 | 0.00 | 25 | 1003.4 |
| 20260904180603 | 21 | 121 | 35.4 | 0.0 | 0.00 | 0.00 | 0.00 | 25 | 1003.2 |
| 20260904180008 | 21 | 180 | 33.8 | 0.0 | 0.00 | 0.00 | 0.00 | 25 | 1003.2 |
| 20260904175515 | 21 | 168 | 33.8 | 0.0 | 0.00 | 0.00 | 0.00 | 25 | 1003.2 |
| 20260904175016 | 21 | 173 | 32.2 | 0.0 | 0.00 | 0.00 | 0.00 | 26 | 1003.1 |
| 20260904174518 | 21 | 149 | 32.2 | 0.0 | 0.00 | 0.00 | 0.00 | 25 | 1003.2 |
| 20260904174030 | 21 | 182 | 30.6 | 0.0 | 0.00 | 0.00 | 0.00 | 26 | 1003.2 |
| 20260904173542 | 21 | 152 | 30.6 | 0.0 | 0.00 | 0.00 | 0.00 | 26 | 1003.2 |
| 20260904173042 | 21 | 173 | 27.4 | 0.0 | 0.00 | 0.00 | 0.00 | 27 | 1003.2 |
| 20260904172552 | 21 | 180 | 25.7 | 0.0 | 0.00 | 0.00 | 0.00 | 27 | 1003.3 |
| 20260904172055 | 21 | 184 | 24.1 | 0.0 | 0.00 | 0.00 | 0.00 | 27 | 1003.5 |
| 20260904171604 | 21 | 176 | 25.7 | 0.0 | 0.00 | 0.00 | 0.00 | 28 | 1003.4 |
| 20260904171100 | 21 | 173 | 25.7 | 0.0 | 0.00 | 0.00 | 0.00 | 27 | 1003.6 |
| 20260904170501 | 21 | 130 | 25.7 | 0.0 | 0.00 | 0.00 | 0.00 | 28 | 1003.6 |
| 20260904170004 | 21 | 190 | 27.4 | 0.0 | 0.00 | 0.00 | 0.00 | 28 | 1003.4 |
| 20260904165610 | 21 | 190 | 27.4 | 0.0 | 0.00 | 0.00 | 0.00 | 27 | 1003.5 |
| 20260904165101 | 21 | 173 | 27.4 | 0.0 | 0.00 | 0.00 | 0.00 | 27 | 1003.5 |
| 20260904164503 | 21 | 138 | 25.7 | 0.0 | 0.00 | 0.00 | 0.00 | 28 | 1003.6 |
| 20260904164023 | 20 | 146 | 27.4 | 0.0 | 0.00 | 0.00 | 0.00 | 28 | 1003.4 |
| 20260904163546 | 20 | 184 | 25.7 | 0.0 | 0.00 | 0.00 | 0.00 | 28 | 1003.2 |
| 20260904163057 | 20 | 125 | 25.7 | 0.0 | 0.00 | 0.00 | 0.00 | 29 | 1003.4 |
| 20260904162511 | 20 | 180 | 25.7 | 0.0 | 0.00 | 0.00 | 0.00 | 29 | 1003.4 |
| 20260904162020 | 20 | 140 | 25.7 | 0.0 | 0.00 | 0.00 | 0.00 | 30 | 1003.3 |
| 20260904161534 | 19 | 147 | 25.7 | 0.0 | 0.00 | 0.00 | 0.00 | 30 | 1003.3 |
| 20260904161043 | 20 | 148 | 25.7 | 0.0 | 0.00 | 0.00 | 0.00 | 29 | 1003.3 |
| 20260904160553 | 19 | 195 | 25.7 | 0.0 | 0.00 | 0.00 | 0.00 | 30 | 1003.2 |
| 20260904160057 | 19 | 128 | 24.1 | 0.0 | 0.00 | 0.00 | 0.00 | 30 | 1003.4 |
| 20260904155518 | 19 | 122 | 24.1 | 0.0 | 0.00 | 0.00 | 0.00 | 30 | 1003.3 |
| 20260904155030 | 19 | 141 | 25.7 | 0.0 | 0.00 | 0.00 | 0.00 | 30 | 1003.1 |
| 20260904154547 | 19 | 119 | 30.6 | 0.0 | 0.00 | 0.00 | 0.00 | 29 | 1003.2 |
| 20260904154059 | 19 | 161 | 30.6 | 0.0 | 0.00 | 0.00 | 0.00 | 30 | 1003.0 |
| 20260904153518 | 18 | 128 | 30.6 | 0.0 | 0.00 | 0.00 | 0.00 | 30 | 1003.0 |
| 20260904153035 | 18 | 132 | 32.2 | 0.0 | 0.00 | 0.00 | 0.00 | 29 | 1002.9 |
| 20260904152542 | 18 | 133 | 32.2 | 0.0 | 0.00 | 0.00 | 0.00 | 30 | 1002.6 |
| 20260904152054 | 18 | 123 | 30.6 | 0.0 | 0.00 | 0.00 | 0.00 | 30 | 1002.7 |
| 20260904151605 | 18 | 124 | 32.2 | 0.0 | 0.00 | 0.00 | 0.00 | 30 | 1002.7 |
| 20260904151023 | 18 | 150 | 32.2 | 0.0 | 0.00 | 0.00 | 0.00 | 29 | 1002.6 |
| 20260904150544 | 18 | 154 | 32.2 | 0.0 | 0.00 | 0.00 | 0.00 | 29 | 1002.7 |
| 20260904150052 | 18 | 123 | 32.2 | 0.0 | 0.00 | 0.00 | 0.00 | 29 | 1002.7 |
| 20260904145509 | 18 | 148 | 32.2 | 0.0 | 0.00 | 0.00 | 0.00 | 29 | 1002.7 |
| 20260904145029 | 18 | 119 | 30.6 | 0.0 | 0.00 | 0.00 | 0.00 | 29 | 1002.5 |
| 20260904144544 | 18 | 136 | 32.2 | 0.0 | 0.00 | 0.00 | 0.00 | 28 | 1002.5 |
| 20260904144013 | 18 | 179 | 32.2 | 0.0 | 0.00 | 0.00 | 0.00 | 28 | 1002.5 |
| 20260904143521 | 18 | 172 | 30.6 | 0.0 | 0.00 | 0.00 | 0.00 | 28 | 1002.5 |
| 20260904143037 | 18 | 146 | 29.0 | 0.0 | 0.00 | 0.00 | 0.00 | 28 | 1002.4 |
| 20260904142540 | 18 | 146 | 29.0 | 0.0 | 0.00 | 0.00 | 0.00 | 28 | 1002.5 |
| 20260904142049 | 18 | 135 | 25.7 | 0.0 | 0.00 | 0.00 | 0.00 | 27 | 1002.4 |
| 20260904141508 | 18 | 149 | 22.5 | 0.0 | 0.00 | 0.00 | 0.00 | 27 | 1002.3 |
| 20260904141021 | 18 | 167 | 24.1 | 0.0 | 0.00 | 0.00 | 0.00 | 27 | 1002.3 |
| 20260904140543 | 18 | 142 | 25.7 | 0.0 | 0.00 | 0.00 | 0.00 | 27 | 1002.3 |
| 20260904140053 | 18 | 157 | 25.7 | 0.0 | 0.00 | 0.00 | 0.00 | 27 | 1002.1 |
| 20260904135607 | 18 | 146 | 25.7 | 0.0 | 0.00 | 0.00 | 0.00 | 27 | 1002.3 |
| 20260904135008 | 17 | 153 | 27.4 | 0.0 | 0.00 | 0.00 | 0.00 | 27 | 1002.3 |
| 20260904134513 | 17 | 157 | 29.0 | 0.0 | 0.00 | 0.00 | 0.00 | 27 | 1002.1 |
| 20260904134023 | 17 | 146 | 27.4 | 0.0 | 0.00 | 0.00 | 0.00 | 27 | 1002.0 |
| 20260904133531 | 17 | 144 | 27.4 | 0.0 | 0.00 | 0.00 | 0.00 | 27 | 1001.9 |
| 20260904133041 | 17 | 165 | 27.4 | 0.0 | 0.00 | 0.00 | 0.00 | 27 | 1001.9 |
| 20260904132552 | 17 | 140 | 25.7 | 0.0 | 0.00 | 0.00 | 0.00 | 27 | 1002.0 |
| 20260904132006 | 17 | 142 | 25.7 | 0.0 | 0.00 | 0.00 | 0.00 | 26 | 1001.8 |
| 20260904131523 | 17 | 153 | 27.4 | 0.0 | 0.00 | 0.00 | 0.00 | 26 | 1001.7 |
| 20260904131039 | 17 | 163 | 25.7 | 0.0 | 0.00 | 0.00 | 0.00 | 27 | 1001.5 |
| 20260904130547 | 17 | 163 | 25.7 | 0.0 | 0.00 | 0.00 | 0.00 | 27 | 1001.3 |
| 20260904130103 | 17 | 122 | 25.7 | 0.0 | 0.00 | 0.00 | 0.00 | 27 | 1001.3 |
| 20260904125508 | 17 | 131 | 25.7 | 0.0 | 0.00 | 0.00 | 0.00 | 27 | 1001.2 |
| 20260904125022 | 17 | 133 | 25.7 | 0.0 | 0.00 | 0.00 | 0.00 | 27 | 1001.1 |
| 20260904124540 | 17 | 146 | 24.1 | 0.0 | 0.00 | 0.00 | 0.00 | 27 | 1001.2 |
| 20260904124058 | 17 | 149 | 24.1 | 0.0 | 0.00 | 0.00 | 0.00 | 27 | 1000.9 |
| 20260904123601 | 17 | 132 | 20.9 | 0.0 | 0.00 | 0.00 | 0.00 | 27 | 1001.0 |
| 20260904123030 | 17 | 150 | 20.9 | 0.0 | 0.00 | 0.00 | 0.00 | 28 | 1001.0 |
| 20260904122534 | 17 | 150 | 20.9 | 0.0 | 0.00 | 0.00 | 0.00 | 28 | 1000.8 |
| 20260904122040 | 17 | 146 | 19.3 | 0.0 | 0.00 | 0.00 | 0.00 | 29 | 1000.8 |
| 20260904121558 | 17 | 164 | 17.7 | 0.0 | 0.00 | 0.00 | 0.00 | 29 | 1000.9 |
| 20260904121003 | 16 | 163 | 16.1 | 0.0 | 0.00 | 0.00 | 0.00 | 30 | 1000.6 |
| 20260904120518 | 16 | 167 | 16.1 | 0.0 | 0.00 | 0.00 | 0.00 | 32 | 1000.5 |
| 20260904120045 | 15 | 153 | 16.1 | 0.0 | 0.00 | 0.00 | 0.00 | 33 | 1000.5 |
| 20260904115539 | 14 | 143 | 14.5 | 0.0 | 0.00 | 0.00 | 0.00 | 35 | 1000.2 |
| 20260904115055 | 13 | 173 | 12.9 | 0.0 | 0.00 | 0.00 | 0.00 | 37 | 1000.2 |
| 20260904114505 | 13 | 169 | 14.5 | 0.0 | 0.00 | 0.00 | 0.00 | 39 | 1000.2 |
| 20260904114028 | 13 | 149 | 16.1 | 0.0 | 0.00 | 0.00 | 0.00 | 39 | 1000.1 |
| 20260904113549 | 13 | 161 | 16.1 | 0.0 | 0.00 | 0.00 | 0.00 | 40 | 1000.2 |
| 20260904113059 | 12 | 189 | 14.5 | 0.0 | 0.00 | 0.00 | 0.00 | 41 | 1000.1 |
| 20260904112522 | 12 | 164 | 14.5 | 0.0 | 0.00 | 0.00 | 0.00 | 40 | 999.9 |
| 20260904112033 | 13 | 185 | 14.5 | 0.0 | 0.00 | 0.00 | 0.00 | 40 | 1000.0 |
| 20260904111555 | 12 | 184 | 12.9 | 0.0 | 0.00 | 0.00 | 0.00 | 40 | 1000.0 |
| 20260904111055 | 12 | 175 | 11.3 | 0.0 | 0.00 | 0.00 | 0.00 | 40 | 1000.0 |
| 20260904110511 | 13 | 178 | 9.7 | 0.0 | 0.00 | 0.00 | 0.00 | 39 | 1000.0 |
| 20260904110028 | 13 | 180 | 11.3 | 0.0 | 0.00 | 0.00 | 0.00 | 37 | 1000.1 |
| 20260904105541 | 13 | 148 | 12.9 | 0.0 | 0.00 | 0.00 | 0.00 | 37 | 1000.2 |
| 20260904105105 | 14 | 165 | 11.3 | 0.0 | 0.00 | 0.00 | 0.00 | 36 | 1000.2 |
| 20260904104535 | 14 | 178 | 11.3 | 0.0 | 0.00 | 0.00 | 0.00 | 36 | 1000.2 |